Weather History for Honolulu, HI

Change the Weather History Date:

Wednesday, January 30, 2013

  Actual Average Record
Temperature  
Mean Temperature 73 °F 73 °F  
Max Temperature 81 °F 80 °F 84 °F (1959)
Min Temperature 64 °F 66 °F 56 °F (1972)
Degree Days  
Heating Degree Days 0 0  
Month to date heating degree days 0 0  
Since 1 July heating degree days 0 0  
Cooling Degree Days 8 8  
Month to date cooling degree days 210 242  
Year to date cooling degree days 210 242  
Growing Degree Days 22 (Base 50)    
Moisture  
Dew Point 64 °F    
Average Humidity 74    
Maximum Humidity 93    
Minimum Humidity 54    
Precipitation  
Precipitation 0.00 in 0.06 in 1.22 in (1975)
Month to date precipitation 2.42 2.24  
Year to date precipitation 2.42 2.24  
Snow  
Snow 0.00 in - - ()
Month to date snowfall 0.0  
Since 1 July snowfall 0.0  
Snow Depth 0.00 in    
Sea Level Pressure  
Sea Level Pressure 30.04 in    
Wind  
Wind Speed 5 mph (NNW)    
Max Wind Speed 10 mph    
Max Gust Speed -    
Visibility 10 miles    
Events      
T = Trace of Precipitation, MM = Missing Value Source: NWS Daily Summary

Daily Weather History Graph

Daily Weather History Graph

Search for Another Location

Airport:

Trip Planner

Search our weather history database for the weather conditions in past years. The results will help you decide how hot, cold, wet, or windy it might be!

Date:

Astronomy

Jan. 30, 2013 Rise Set
Actual Time 7:09 AM HST 6:20 PM HST
Civil Twilight 6:46 AM HST 6:44 PM HST
Nautical Twilight 6:19 AM HST 7:10 PM HST
Astronomical Twilight 5:53 AM HST 7:37 PM HST
Moon 9:52 PM HST 9:18 AM HST
Length of Visible Light 11h 57m
Length of Day
11h 11m
Waning Gibbous, 86% of the Moon is Illuminated
Jan 30
Waning Gibbous
Feb 3
Last Quarter
Feb 9
New
Feb 17
First Quarter
Feb 25
Full

Hourly Weather History & Observations

Time (HST) Temp. Heat Index Dew Point Humidity Pressure Visibility Wind Dir Wind Speed Gust Speed Precip Events Conditions
12:53 AM 69.1 °F - 63.0 °F 81% 30.02 in 10.0 mi NNW 3.5 mph - N/A   Partly Cloudy
1:53 AM 68.0 °F - 63.0 °F 84% 30.01 in 10.0 mi NNW 3.5 mph - N/A   Partly Cloudy
2:53 AM 69.1 °F - 63.0 °F 81% 30.01 in 10.0 mi North 4.6 mph - N/A   Partly Cloudy
3:53 AM 66.0 °F - 62.1 °F 87% 30.01 in 10.0 mi North 3.5 mph - N/A   Partly Cloudy
4:53 AM 68.0 °F - 63.0 °F 84% 30.01 in 10.0 mi North 3.5 mph - N/A   Partly Cloudy
5:53 AM 64.0 °F - 61.0 °F 90% 30.02 in 10.0 mi NNE 3.5 mph - N/A   Partly Cloudy
6:53 AM 64.9 °F - 62.1 °F 90% 30.03 in 10.0 mi Calm Calm - N/A   Partly Cloudy
7:53 AM 66.9 °F - 62.1 °F 84% 30.05 in 10.0 mi North 3.5 mph - N/A   Partly Cloudy
8:53 AM 73.0 °F - 64.0 °F 73% 30.07 in 10.0 mi North 3.5 mph - N/A   Partly Cloudy
9:53 AM 75.9 °F - 63.0 °F 64% 30.08 in 10.0 mi Calm Calm - N/A   Scattered Clouds
10:53 AM 80.1 °F 81.2 °F 62.1 °F 54% 30.07 in 10.0 mi Calm Calm - N/A   Scattered Clouds
11:13 AM 78.8 °F - 64.4 °F 61% 30.06 in 1.8 mi WSW 5.8 mph - N/A   Haze
11:15 AM 78.8 °F - 64.4 °F 61% 30.06 in 10.0 mi Variable 3.5 mph - N/A   Clear
11:53 AM 78.1 °F - 64.0 °F 62% 30.05 in 10.0 mi South 8.1 mph - N/A   Scattered Clouds
12:53 PM 77.0 °F - 64.0 °F 64% 30.04 in 10.0 mi South 10.4 mph - N/A   Scattered Clouds
1:53 PM 78.1 °F - 66.0 °F 66% 30.02 in 8.0 mi SSW 8.1 mph - N/A   Scattered Clouds
2:53 PM 77.0 °F - 64.9 °F 66% 30.01 in 10.0 mi WSW 10.4 mph - N/A   Mostly Cloudy
3:53 PM 75.0 °F - 64.9 °F 71% 30.01 in 10.0 mi West 4.6 mph - N/A   Overcast
4:53 PM 75.0 °F - 64.0 °F 69% 30.02 in 10.0 mi NNE 8.1 mph - N/A   Overcast
5:53 PM 75.0 °F - 64.9 °F 71% 30.02 in 10.0 mi NE 6.9 mph - N/A   Mostly Cloudy
6:53 PM 73.9 °F - 64.9 °F 73% 30.03 in 10.0 mi Calm Calm - N/A   Mostly Cloudy
7:53 PM 73.0 °F - 64.9 °F 76% 30.04 in 10.0 mi North 3.5 mph - N/A   Scattered Clouds
8:53 PM 72.0 °F - 64.0 °F 76% 30.07 in 10.0 mi NW 3.5 mph - N/A   Scattered Clouds
9:53 PM 71.1 °F - 63.0 °F 75% 30.08 in 10.0 mi Variable 5.8 mph - N/A   Scattered Clouds
10:53 PM 70.0 °F - 63.0 °F 78% 30.07 in 10.0 mi NNW 5.8 mph - N/A   Partly Cloudy
11:53 PM 69.1 °F - 63.0 °F 81% 30.07 in 10.0 mi NNW 3.5 mph - N/A   Partly Cloudy